Deadhorse Airport
PASC : now visible

Airfield :











YOU CAN JOIN US ON...

 
LOGIN :

Register | Disclaimer

   EN    FR    IT 

 









Legend :    VFR   Marginal VFR   IFR   Intensive IFR   Very Intensive IFR
Visi :
Ceiling :
>= 8 km
>= 3000ft
5 to 8 km
1000 to 3000 ft
1500m to 5 km
500 to 1000 ft
800 to 1500m
200 to 500 ft
< 800m
< 200 ft
Symbols :   Thunderstorms  Fog  Heavy snow  Heavy precipitations  Wind > 20 kt






- Airport Elevation : 65 ft
- IATA code : SCC


PASC - Deadhorse

CURRENT METAR :
  • 151753Z 06016KT 1 1/2SM BR OVC013 M23/M27 A2997 RMK AO2 SLP153 T12331267 11233 21250 56009

EXPIRED METARs :
  • 151653Z 06019KT 1 3/4SM BR OVC011 M24/M27 A2998 RMK AO2 SLP155 T12391272
  • 151553Z 06018KT 1 1/2SM BR OVC013 M24/M28 A2999 RMK AO2 SLP159 T12441278

TAF PASC
Valid from the 15 at 18:00 until the 16 at 18:00 UTC


151739Z 1518/1618 06019KT 1 1/2SM BR OVC011
PAZA FIR / North America



MET'MAP, your aeronautical weather chart ! - Copyright ORBIFLY December 2007 - Disclaimer

ORBIFLY MET'MAP TEAM :

Programming & Development : Alexandra Zaïnal
Concept & original design : Baudouin d'Aumeries
Assistance for programming : Marc-Olivier Méhu
Technical & hardware support : Manuel Goepfert

Contact : metmap@orbifly.com




SOURCES & CREDITS :

   NOAA       Earth
Advisory